| time (UTC) | temp F | wind direction | speed knots | gust knots | rain 1hr in | rain 24hr in | rain mn in | humidity % | barometer mb |
| 20260906150554 | 69 | 136 | 2.6 | 2.6 | 0.00 | 0.00 | 0.00 | 95 | 1019.0 |
| 20260906150049 | 69 | 170 | 5.2 | 7.0 | 0.00 | 0.00 | 0.00 | 95 | 1019.1 |
| 20260906145548 | 69 | 133 | 7.0 | 8.7 | 0.00 | 0.00 | 0.00 | 95 | 1019.2 |
| 20260906145043 | 69 | 169 | 1.7 | 3.5 | 0.00 | 0.00 | 0.00 | 95 | 1019.1 |
| 20260906144537 | 69 | 129 | 1.7 | 2.6 | 0.00 | 0.00 | 0.00 | 95 | 1019.0 |
| 20260906144033 | 69 | 153 | 5.2 | 7.0 | 0.00 | 0.00 | 0.00 | 95 | 1018.8 |
| 20260906143528 | 69 | 125 | 3.5 | 3.5 | 0.00 | 0.00 | 0.00 | 95 | 1019.0 |
| 20260906143025 | 69 | 150 | 5.2 | 6.1 | 0.00 | 0.00 | 0.00 | 95 | 1019.0 |
| 20260906142524 | 69 | 207 | 4.3 | 7.8 | 0.00 | 0.00 | 0.00 | 95 | 1019.2 |
| 20260906142020 | 69 | 34 | 5.2 | 7.0 | 0.00 | 0.00 | 0.00 | 94 | 1019.3 |
| 20260906141520 | 69 | 153 | 5.2 | 7.0 | 0.00 | 0.00 | 0.00 | 95 | 1019.4 |
| 20260906141015 | 69 | 126 | 7.0 | 11.3 | 0.00 | 0.00 | 0.00 | 94 | 1019.3 |
| 20260906140514 | 69 | 114 | 3.5 | 5.2 | 0.00 | 0.00 | 0.00 | 94 | 1019.3 |
| 20260906140014 | 69 | 130 | 6.1 | 7.8 | 0.00 | 0.00 | 0.00 | 94 | 1019.2 |
| 20260906135511 | 69 | 126 | 1.7 | 2.6 | 0.00 | 0.00 | 0.00 | 94 | 1019.2 |
| 20260906135007 | 69 | 134 | 5.2 | 7.0 | 0.00 | 0.00 | 0.00 | 94 | 1019.2 |
| 20260906134502 | 69 | 149 | 4.3 | 5.2 | 0.00 | 0.00 | 0.00 | 94 | 1019.1 |
| 20260906133956 | 69 | 71 | 2.6 | 2.6 | 0.00 | 0.00 | 0.00 | 94 | 1019.1 |
| 20260906133452 | 69 | 141 | 2.6 | 6.1 | 0.00 | 0.00 | 0.00 | 94 | 1019.1 |
| 20260906132948 | 69 | 96 | 4.3 | 5.2 | 0.00 | 0.00 | 0.00 | 95 | 1019.0 |
| 20260906132443 | 69 | 128 | 5.2 | 7.8 | 0.00 | 0.00 | 0.00 | 95 | 1019.1 |
| 20260906131938 | 69 | 148 | 5.2 | 8.7 | 0.00 | 0.00 | 0.00 | 95 | 1019.1 |
| 20260906131433 | 69 | 195 | 6.1 | 7.8 | 0.00 | 0.00 | 0.00 | 95 | 1019.0 |
| 20260906130929 | 69 | 151 | 5.2 | 6.1 | 0.00 | 0.00 | 0.00 | 95 | 1019.0 |
| 20260906130428 | 69 | 144 | 2.6 | 3.5 | 0.00 | 0.00 | 0.00 | 95 | 1019.0 |
| 20260906125923 | 69 | 144 | 3.5 | 7.0 | 0.00 | 0.00 | 0.00 | 95 | 1019.0 |
| 20260906125420 | 69 | 116 | 4.3 | 6.1 | 0.00 | 0.00 | 0.00 | 95 | 1018.9 |
| 20260906124920 | 69 | 138 | 3.5 | 6.1 | 0.00 | 0.00 | 0.00 | 95 | 1018.7 |
| 20260906124416 | 69 | 84 | 5.2 | 7.8 | 0.00 | 0.00 | 0.00 | 95 | 1018.6 |
| 20260906123916 | 69 | 155 | 4.3 | 6.1 | 0.00 | 0.00 | 0.00 | 95 | 1018.6 |
| 20260906123410 | 69 | 66 | 3.5 | 6.1 | 0.00 | 0.00 | 0.00 | 95 | 1018.6 |
| 20260906122910 | 69 | 148 | 3.5 | 5.2 | 0.00 | 0.00 | 0.00 | 95 | 1018.5 |
| 20260906122404 | 69 | 102 | 4.3 | 6.1 | 0.00 | 0.00 | 0.00 | 95 | 1018.5 |
| 20260906121901 | 69 | 112 | 3.5 | 5.2 | 0.00 | 0.00 | 0.00 | 95 | 1018.5 |
| 20260906121357 | 69 | 146 | 0.9 | 1.7 | 0.00 | 0.00 | 0.00 | 95 | 1018.5 |
| 20260906120853 | 69 | 144 | 4.3 | 5.2 | 0.00 | 0.00 | 0.00 | 95 | 1018.3 |
| 20260906120349 | 69 | 153 | 1.7 | 3.5 | 0.00 | 0.00 | 0.00 | 95 | 1018.4 |
| 20260906115844 | 69 | 170 | 2.6 | 3.5 | 0.00 | 0.00 | 0.00 | 95 | 1018.3 |
| 20260906115340 | 69 | 164 | 2.6 | 3.5 | 0.00 | 0.00 | 0.00 | 95 | 1018.3 |
| 20260906114839 | 69 | 181 | 3.5 | 3.5 | 0.00 | 0.00 | 0.00 | 95 | 1018.1 |
| 20260906114335 | 68 | 159 | 3.5 | 5.2 | 0.00 | 0.00 | 0.00 | 95 | 1018.3 |
| 20260906113830 | 68 | 159 | 2.6 | 3.5 | 0.00 | 0.00 | 0.00 | 95 | 1017.9 |
| 20260906113329 | 68 | 131 | 4.3 | 5.2 | 0.00 | 0.00 | 0.00 | 95 | 1017.9 |
| 20260906112824 | 68 | 171 | 4.3 | 5.2 | 0.00 | 0.00 | 0.00 | 95 | 1017.6 |
| 20260906112321 | 68 | 116 | 2.6 | 3.5 | 0.00 | 0.00 | 0.00 | 95 | 1018.1 |
| 20260906111820 | 68 | 116 | 5.2 | 6.1 | 0.00 | 0.00 | 0.00 | 95 | 1017.8 |
| 20260906111319 | 68 | 152 | 2.6 | 3.5 | 0.00 | 0.00 | 0.00 | 95 | 1018.1 |
| 20260906110814 | 69 | 105 | 4.3 | 6.1 | 0.00 | 0.00 | 0.00 | 94 | 1017.9 |
| 20260906110310 | 69 | 108 | 3.5 | 3.5 | 0.00 | 0.00 | 0.00 | 94 | 1018.0 |
| 20260906105809 | 69 | 105 | 2.6 | 5.2 | 0.00 | 0.00 | 0.00 | 94 | 1018.0 |
| 20260906105306 | 69 | 167 | 3.5 | 3.5 | 0.00 | 0.00 | 0.00 | 94 | 1017.9 |
| 20260906104800 | 69 | 175 | 2.6 | 2.6 | 0.00 | 0.00 | 0.00 | 94 | 1018.0 |
| 20260906104259 | 69 | 112 | 1.7 | 2.6 | 0.00 | 0.00 | 0.00 | 94 | 1017.8 |
| 20260906103757 | 69 | 162 | 3.5 | 6.1 | 0.00 | 0.00 | 0.00 | 94 | 1017.9 |
| 20260906103257 | 69 | 130 | 2.6 | 5.2 | 0.00 | 0.00 | 0.00 | 93 | 1018.0 |
| 20260906102753 | 69 | 117 | 3.5 | 6.1 | 0.00 | 0.00 | 0.00 | 93 | 1017.9 |
| 20260906102251 | 69 | 130 | 2.6 | 3.5 | 0.00 | 0.00 | 0.00 | 93 | 1018.0 |
| 20260906101747 | 69 | 166 | 3.5 | 5.2 | 0.00 | 0.00 | 0.00 | 93 | 1018.0 |
| 20260906101242 | 69 | 146 | 3.5 | 5.2 | 0.00 | 0.00 | 0.00 | 92 | 1018.0 |
| 20260906100737 | 69 | 167 | 2.6 | 3.5 | 0.00 | 0.00 | 0.00 | 92 | 1017.9 |
| 20260906100237 | 69 | 149 | 0.9 | 1.7 | 0.00 | 0.00 | 0.00 | 92 | 1017.9 |
| 20260906095732 | 69 | 75 | 3.5 | 3.5 | 0.00 | 0.00 | 0.00 | 92 | 1017.9 |
| 20260906095222 | 69 | 124 | 1.7 | 1.7 | 0.00 | 0.00 | 0.00 | 92 | 1017.8 |
| 20260906094720 | 69 | 151 | 2.6 | 2.6 | 0.00 | 0.00 | 0.00 | 92 | 1017.7 |
| 20260906094216 | 69 | 109 | 2.6 | 2.6 | 0.00 | 0.00 | 0.00 | 92 | 1017.8 |
| 20260906093712 | 69 | 88 | 1.7 | 2.6 | 0.00 | 0.00 | 0.00 | 92 | 1017.7 |
| 20260906093208 | 70 | 105 | 3.5 | 3.5 | 0.00 | 0.00 | 0.00 | 92 | 1017.6 |
| 20260906092702 | 70 | 130 | 3.5 | 6.1 | 0.00 | 0.00 | 0.00 | 92 | 1017.5 |
| 20260906092201 | 70 | 125 | 3.5 | 5.2 | 0.00 | 0.00 | 0.00 | 92 | 1017.8 |
| 20260906091658 | 70 | 117 | 3.5 | 5.2 | 0.00 | 0.00 | 0.00 | 92 | 1017.8 |
| 20260906091154 | 70 | 82 | 0.9 | 1.7 | 0.00 | 0.00 | 0.00 | 92 | 1017.5 |
| 20260906090650 | 70 | 83 | 1.7 | 1.7 | 0.00 | 0.00 | 0.00 | 92 | 1017.6 |
| 20260906090149 | 70 | 105 | 0.9 | 1.7 | 0.00 | 0.00 | 0.00 | 92 | 1017.6 |
| 20260906085649 | 70 | 135 | 5.2 | 7.0 | 0.00 | 0.00 | 0.00 | 92 | 1017.6 |
| 20260906085148 | 70 | 172 | 1.7 | 3.5 | 0.00 | 0.00 | 0.00 | 92 | 1017.6 |
| 20260906084643 | 70 | 111 | 0.0 | 0.9 | 0.00 | 0.00 | 0.00 | 92 | 1017.6 |
| 20260906084142 | 70 | 110 | 4.3 | 6.1 | 0.00 | 0.00 | 0.00 | 92 | 1017.2 |
| 20260906083637 | 70 | 136 | 2.6 | 3.5 | 0.00 | 0.00 | 0.00 | 92 | 1017.4 |
| 20260906083132 | 70 | 123 | 1.7 | 3.5 | 0.00 | 0.00 | 0.00 | 92 | 1017.2 |
| 20260906082628 | 70 | 91 | 3.5 | 6.1 | 0.00 | 0.00 | 0.00 | 92 | 1017.3 |
| 20260906082123 | 70 | 127 | 3.5 | 3.5 | 0.00 | 0.00 | 0.00 | 92 | 1017.1 |
| 20260906081619 | 70 | 118 | 3.5 | 5.2 | 0.00 | 0.00 | 0.00 | 92 | 1017.1 |
| 20260906081114 | 70 | 105 | 6.1 | 7.8 | 0.00 | 0.00 | 0.00 | 92 | 1017.2 |
| 20260906080611 | 70 | 95 | 2.6 | 5.2 | 0.00 | 0.00 | 0.00 | 92 | 1017.2 |
| 20260906080107 | 70 | 150 | 1.7 | 2.6 | 0.00 | 0.00 | 0.00 | 92 | 1017.2 |
| 20260906075601 | 70 | 136 | 5.2 | 6.1 | 0.00 | 0.00 | 0.00 | 92 | 1017.3 |
| 20260906075101 | 71 | 72 | 2.6 | 3.5 | 0.00 | 0.00 | 0.00 | 92 | 1017.3 |
| 20260906074556 | 70 | 121 | 6.1 | 8.7 | 0.00 | 0.00 | 0.00 | 92 | 1017.3 |
| 20260906074055 | 71 | 141 | 2.6 | 2.6 | 0.00 | 0.00 | 0.00 | 92 | 1017.4 |
| 20260906073550 | 70 | 142 | 4.3 | 5.2 | 0.00 | 0.00 | 0.00 | 92 | 1017.5 |
| 20260906073046 | 71 | 68 | 3.5 | 6.1 | 0.00 | 0.00 | 0.00 | 92 | 1017.4 |
| 20260906072540 | 71 | 115 | 4.3 | 6.1 | 0.00 | 0.00 | 0.00 | 92 | 1017.3 |
| 20260906072037 | 71 | 133 | 7.0 | 8.7 | 0.00 | 0.00 | 0.00 | 92 | 1017.3 |
| 20260906071533 | 71 | 93 | 3.5 | 6.1 | 0.00 | 0.00 | 0.00 | 92 | 1017.1 |
| 20260906071028 | 71 | 72 | 3.5 | 7.8 | 0.00 | 0.00 | 0.00 | 92 | 1017.4 |
| 20260906070524 | 71 | 122 | 4.3 | 7.0 | 0.00 | 0.00 | 0.00 | 92 | 1017.4 |
| 20260906070019 | 71 | 103 | 3.5 | 5.2 | 0.00 | 0.00 | 0.00 | 93 | 1017.7 |
| 20260906065519 | 71 | 119 | 1.7 | 2.6 | 0.00 | 0.00 | 0.00 | 93 | 1017.6 |
| 20260906065015 | 71 | 122 | 5.2 | 7.0 | 0.00 | 0.00 | 0.00 | 94 | 1017.4 |
| 20260906064511 | 71 | 126 | 2.6 | 2.6 | 0.00 | 0.00 | 0.00 | 94 | 1017.5 |
| 20260906064011 | 71 | 81 | 4.3 | 6.1 | 0.00 | 0.00 | 0.00 | 94 | 1017.5 |
| 20260906063506 | 71 | 95 | 4.3 | 6.1 | 0.00 | 0.00 | 0.00 | 94 | 1017.5 |
| 20260906063001 | 71 | 86 | 7.0 | 8.7 | 0.00 | 0.00 | 0.00 | 94 | 1017.5 |
| 20260906062456 | 71 | 96 | 5.2 | 7.0 | 0.00 | 0.00 | 0.00 | 94 | 1017.4 |
| 20260906061951 | 71 | 102 | 4.3 | 6.1 | 0.00 | 0.00 | 0.00 | 94 | 1017.5 |
| 20260906061447 | 71 | 40 | 4.3 | 7.0 | 0.00 | 0.00 | 0.00 | 94 | 1017.8 |
| 20260906060941 | 71 | 118 | 3.5 | 5.2 | 0.00 | 0.00 | 0.00 | 94 | 1017.6 |
| 20260906060438 | 71 | 114 | 4.3 | 5.2 | 0.00 | 0.00 | 0.00 | 94 | 1017.5 |
| 20260906055935 | 72 | 49 | 1.7 | 2.6 | 0.00 | 0.00 | 0.00 | 94 | 1017.6 |
| 20260906055430 | 72 | 163 | 3.5 | 5.2 | 0.00 | 0.00 | 0.00 | 94 | 1017.8 |
| 20260906054925 | 72 | 76 | 2.6 | 2.6 | 0.00 | 0.00 | 0.00 | 93 | 1017.7 |
| 20260906054420 | 72 | 166 | 1.7 | 1.7 | 0.00 | 0.00 | 0.00 | 93 | 1017.7 |
| 20260906053916 | 72 | 87 | 3.5 | 5.2 | 0.00 | 0.00 | 0.00 | 93 | 1017.7 |
| 20260906053412 | 72 | 157 | 1.7 | 2.6 | 0.00 | 0.00 | 0.00 | 93 | 1017.5 |
| 20260906052908 | 72 | 73 | 4.3 | 6.1 | 0.00 | 0.00 | 0.00 | 93 | 1017.4 |
| 20260906052404 | 72 | 90 | 3.5 | 3.5 | 0.00 | 0.00 | 0.00 | 93 | 1017.5 |
| 20260906051900 | 72 | 128 | 1.7 | 2.6 | 0.00 | 0.00 | 0.00 | 93 | 1017.6 |
| 20260906051355 | 72 | 87 | 3.5 | 3.5 | 0.00 | 0.00 | 0.00 | 93 | 1017.6 |
| 20260906050850 | 72 | 133 | 3.5 | 5.2 | 0.00 | 0.00 | 0.00 | 93 | 1017.5 |
| 20260906050345 | 72 | 113 | 2.6 | 3.5 | 0.00 | 0.00 | 0.00 | 93 | 1017.4 |
| 20260906045843 | 72 | 133 | 0.0 | 0.0 | 0.00 | 0.00 | 0.00 | 93 | 1017.6 |
| 20260906045338 | 72 | 83 | 0.9 | 1.7 | 0.00 | 0.00 | 0.00 | 93 | 1017.2 |
| 20260906044834 | 72 | 50 | 1.7 | 2.6 | 0.00 | 0.00 | 0.00 | 94 | 1017.2 |
| 20260906044329 | 72 | 64 | 4.3 | 5.2 | 0.00 | 0.00 | 0.00 | 95 | 1017.2 |
| 20260906043827 | 72 | 112 | 2.6 | 3.5 | 0.00 | 0.00 | 0.00 | 94 | 1017.4 |
| 20260906043320 | 72 | 142 | 0.0 | 1.7 | 0.00 | 0.00 | 0.00 | 94 | 1017.2 |
| 20260906042814 | 72 | 124 | 3.5 | 5.2 | 0.00 | 0.00 | 0.00 | 95 | 1017.3 |
| 20260906042313 | 72 | 46 | 1.7 | 1.7 | 0.00 | 0.00 | 0.00 | 95 | 1017.4 |
| 20260906041809 | 72 | 79 | 4.3 | 6.1 | 0.00 | 0.00 | 0.00 | 95 | 1017.4 |
| 20260906041304 | 72 | 86 | 1.7 | 1.7 | 0.00 | 0.00 | 0.00 | 95 | 1017.3 |
| 20260906040800 | 72 | 86 | 0.9 | 1.7 | 0.00 | 0.00 | 0.00 | 94 | 1017.4 |
| 20260906040255 | 72 | 48 | 2.6 | 5.2 | 0.00 | 0.00 | 0.00 | 94 | 1017.1 |
| 20260906035750 | 72 | 45 | 0.9 | 0.9 | 0.00 | 0.00 | 0.00 | 94 | 1017.2 |
| 20260906035245 | 72 | 60 | 1.7 | 2.6 | 0.00 | 0.00 | 0.00 | 94 | 1017.2 |
| 20260906034740 | 72 | 148 | 1.7 | 3.5 | 0.00 | 0.00 | 0.00 | 94 | 1017.0 |
| 20260906034235 | 72 | 122 | 1.7 | 3.5 | 0.00 | 0.00 | 0.00 | 94 | 1017.1 |
| 20260906033731 | 72 | 93 | 1.7 | 1.7 | 0.00 | 0.00 | 0.00 | 94 | 1017.2 |
| 20260906033230 | 73 | 50 | 2.6 | 3.5 | 0.00 | 0.00 | 0.00 | 94 | 1017.1 |
| 20260906032727 | 73 | 71 | 3.5 | 3.5 | 0.00 | 0.00 | 0.00 | 94 | 1017.2 |
| 20260906032227 | 73 | 102 | 0.9 | 1.7 | 0.00 | 0.00 | 0.00 | 94 | 1017.2 |
| 20260906031722 | 73 | 66 | 2.6 | 3.5 | 0.00 | 0.00 | 0.00 | 94 | 1017.1 |
| 20260906031218 | 73 | 66 | 3.5 | 3.5 | 0.00 | 0.00 | 0.00 | 94 | 1017.1 |
| 20260906030717 | 73 | 90 | 0.9 | 2.6 | 0.00 | 0.00 | 0.00 | 94 | 1017.2 |
| 20260906030213 | 73 | 83 | 1.7 | 2.6 | 0.00 | 0.00 | 0.00 | 93 | 1017.4 |
| 20260906025711 | 73 | 91 | 2.6 | 2.6 | 0.00 | 0.00 | 0.00 | 93 | 1017.2 |
| 20260906025206 | 73 | 68 | 3.5 | 5.2 | 0.00 | 0.00 | 0.00 | 93 | 1017.3 |
| 20260906024700 | 73 | 80 | 0.9 | 1.7 | 0.00 | 0.00 | 0.00 | 93 | 1017.4 |
| 20260906024159 | 73 | 21 | 0.9 | 1.7 | 0.00 | 0.00 | 0.00 | 92 | 1017.3 |
| 20260906023655 | 74 | 153 | 1.7 | 2.6 | 0.00 | 0.00 | 0.00 | 92 | 1017.3 |
| 20260906023155 | 74 | 163 | 1.7 | 2.6 | 0.00 | 0.00 | 0.00 | 92 | 1017.3 |
| 20260906022650 | 74 | 106 | 1.7 | 2.6 | 0.00 | 0.00 | 0.00 | 91 | 1017.3 |
| 20260906022146 | 74 | 84 | 0.9 | 0.9 | 0.00 | 0.00 | 0.00 | 91 | 1017.3 |
| 20260906021642 | 74 | 111 | 2.6 | 2.6 | 0.00 | 0.00 | 0.00 | 91 | 1017.2 |
| 20260906021140 | 74 | 134 | 0.9 | 1.7 | 0.00 | 0.00 | 0.00 | 90 | 1017.0 |
| 20260906020635 | 74 | 120 | 0.9 | 1.7 | 0.00 | 0.00 | 0.00 | 90 | 1017.2 |
| 20260906020130 | 74 | 81 | 1.7 | 2.6 | 0.00 | 0.00 | 0.00 | 90 | 1017.0 |
| 20260906015624 | 75 | 93 | 1.7 | 1.7 | 0.00 | 0.00 | 0.00 | 89 | 1017.1 |
| 20260906015122 | 75 | 44 | 1.7 | 2.6 | 0.00 | 0.00 | 0.00 | 89 | 1016.8 |
| 20260906014617 | 75 | 70 | 2.6 | 2.6 | 0.00 | 0.00 | 0.00 | 89 | 1016.7 |
| 20260906014114 | 75 | 79 | 0.9 | 0.9 | 0.00 | 0.00 | 0.00 | 89 | 1016.4 |
| 20260906013609 | 75 | 90 | 2.6 | 3.5 | 0.00 | 0.00 | 0.00 | 88 | 1016.4 |
| 20260906013104 | 75 | 76 | 1.7 | 2.6 | 0.00 | 0.00 | 0.00 | 88 | 1016.5 |
| 20260906012559 | 75 | 48 | 0.0 | 0.9 | 0.00 | 0.00 | 0.00 | 88 | 1016.3 |
| 20260906012058 | 75 | 116 | 0.9 | 2.6 | 0.00 | 0.00 | 0.00 | 87 | 1016.3 |
| 20260906011555 | 76 | 64 | 2.6 | 2.6 | 0.00 | 0.00 | 0.00 | 87 | 1016.6 |
| 20260906011049 | 76 | 41 | 1.7 | 1.7 | 0.00 | 0.00 | 0.00 | 86 | 1016.3 |
| 20260906010544 | 76 | 80 | 3.5 | 7.0 | 0.00 | 0.00 | 0.00 | 86 | 1016.4 |
| 20260906010040 | 76 | 130 | 3.5 | 5.2 | 0.00 | 0.00 | 0.00 | 86 | 1016.4 |
| 20260906005539 | 76 | 121 | 3.5 | 3.5 | 0.00 | 0.00 | 0.00 | 85 | 1016.2 |
| 20260906005038 | 76 | 158 | 2.6 | 3.5 | 0.00 | 0.00 | 0.00 | 85 | 1016.3 |
| 20260906004533 | 77 | 70 | 3.5 | 5.2 | 0.00 | 0.00 | 0.00 | 84 | 1016.5 |
| 20260906004028 | 77 | 48 | 1.7 | 1.7 | 0.00 | 0.00 | 0.00 | 84 | 1016.4 |
| 20260906003523 | 77 | 76 | 3.5 | 5.2 | 0.00 | 0.00 | 0.00 | 83 | 1016.2 |
| 20260906003019 | 77 | 81 | 3.5 | 6.1 | 0.00 | 0.00 | 0.00 | 82 | 1016.3 |
| 20260906002519 | 77 | 126 | 1.7 | 2.6 | 0.00 | 0.00 | 0.00 | 82 | 1016.3 |
| 20260906002013 | 78 | 122 | 0.9 | 1.7 | 0.00 | 0.00 | 0.00 | 81 | 1016.1 |
| 20260906001509 | 78 | 172 | 3.5 | 3.5 | 0.00 | 0.00 | 0.00 | 81 | 1016.0 |
| 20260906001003 | 78 | 114 | 1.7 | 3.5 | 0.00 | 0.00 | 0.00 | 80 | 1016.1 |
| 20260906000500 | 78 | 125 | 2.6 | 3.5 | 0.00 | 0.00 | 0.00 | 79 | 1016.0 |
| 20260905235959 | 78 | 103 | 3.5 | 5.2 | 0.00 | 0.00 | 0.00 | 78 | 1016.2 |
| 20260905235453 | 78 | 122 | 0.9 | 1.7 | 0.00 | 0.00 | 0.00 | 78 | 1016.0 |
| 20260905234948 | 79 | 192 | 1.7 | 1.7 | 0.00 | 0.00 | 0.00 | 77 | 1016.0 |
| 20260905234444 | 79 | 74 | 3.5 | 5.2 | 0.00 | 0.00 | 0.00 | 78 | 1016.1 |
| 20260905233938 | 79 | 64 | 2.6 | 3.5 | 0.00 | 0.00 | 0.00 | 79 | 1015.9 |
| 20260905233434 | 80 | 150 | 1.7 | 2.6 | 0.00 | 0.00 | 0.00 | 78 | 1016.0 |
| 20260905232932 | 80 | 56 | 3.5 | 5.2 | 0.00 | 0.00 | 0.00 | 78 | 1015.9 |
| 20260905232429 | 80 | 84 | 4.3 | 5.2 | 0.00 | 0.00 | 0.00 | 78 | 1016.0 |
| 20260905231923 | 80 | 156 | 1.7 | 3.5 | 0.00 | 0.00 | 0.00 | 78 | 1015.9 |
| 20260905231420 | 80 | 153 | 3.5 | 3.5 | 0.00 | 0.00 | 0.00 | 78 | 1015.9 |
| 20260905230911 | 80 | 190 | 1.7 | 2.6 | 0.00 | 0.00 | 0.00 | 78 | 1015.9 |
| 20260905230408 | 80 | 59 | 5.2 | 6.1 | 0.00 | 0.00 | 0.00 | 77 | 1015.8 |
| 20260905225901 | 81 | 178 | 0.9 | 0.9 | 0.00 | 0.00 | 0.00 | 77 | 1015.9 |
| 20260905225356 | 81 | 115 | 0.9 | 1.7 | 0.00 | 0.00 | 0.00 | 79 | 1015.7 |
| 20260905224852 | 81 | 109 | 2.6 | 2.6 | 0.00 | 0.00 | 0.00 | 79 | 1015.9 |
| 20260905224347 | 81 | 117 | 2.6 | 3.5 | 0.00 | 0.00 | 0.00 | 79 | 1015.7 |
| 20260905223842 | 82 | 139 | 3.5 | 3.5 | 0.00 | 0.00 | 0.00 | 79 | 1015.7 |
| 20260905223339 | 82 | 148 | 2.6 | 6.1 | 0.00 | 0.00 | 0.00 | 79 | 1015.4 |
| 20260905222834 | 82 | 166 | 1.7 | 2.6 | 0.00 | 0.00 | 0.00 | 79 | 1015.4 |
| 20260905222333 | 82 | 141 | 4.3 | 6.1 | 0.00 | 0.00 | 0.00 | 78 | 1015.7 |
| 20260905221829 | 82 | 102 | 4.3 | 6.1 | 0.00 | 0.00 | 0.00 | 78 | 1015.6 |
| 20260905221326 | 82 | 82 | 5.2 | 6.1 | 0.00 | 0.00 | 0.00 | 78 | 1015.3 |
| 20260905220821 | 83 | 98 | 3.5 | 5.2 | 0.00 | 0.00 | 0.00 | 77 | 1015.2 |
| 20260905220318 | 82 | 129 | 1.7 | 2.6 | 0.00 | 0.00 | 0.00 | 78 | 1015.3 |
| 20260905215816 | 82 | 131 | 3.5 | 5.2 | 0.00 | 0.00 | 0.00 | 78 | 1015.6 |
| 20260905215313 | 82 | 137 | 6.1 | 7.8 | 0.00 | 0.00 | 0.00 | 78 | 1015.3 |
| 20260905214809 | 82 | 130 | 1.7 | 2.6 | 0.00 | 0.00 | 0.00 | 78 | 1015.4 |
| 20260905214304 | 82 | 32 | 1.7 | 2.6 | 0.00 | 0.00 | 0.00 | 80 | 1015.4 |
| 20260905213759 | 81 | 192 | 3.5 | 6.1 | 0.00 | 0.00 | 0.00 | 80 | 1015.3 |
| 20260905213255 | 81 | 129 | 4.3 | 7.8 | 0.00 | 0.00 | 0.00 | 80 | 1015.4 |
| 20260905212750 | 82 | 96 | 4.3 | 6.1 | 0.00 | 0.00 | 0.00 | 80 | 1015.2 |
| 20260905212249 | 82 | 133 | 4.3 | 7.0 | 0.00 | 0.00 | 0.00 | 80 | 1015.0 |
| 20260905211748 | 82 | 116 | 5.2 | 8.7 | 0.00 | 0.00 | 0.00 | 80 | 1015.3 |
| 20260905211244 | 81 | 175 | 7.8 | 9.6 | 0.00 | 0.00 | 0.00 | 80 | 1015.4 |
| 20260905210741 | 81 | 156 | 7.8 | 7.8 | 0.00 | 0.00 | 0.00 | 80 | 1015.4 |
| 20260905210235 | 82 | 58 | 5.2 | 5.2 | 0.00 | 0.00 | 0.00 | 80 | 1015.3 |
| 20260905205734 | 82 | 46 | 5.2 | 7.0 | 0.00 | 0.00 | 0.00 | 81 | 1015.7 |
| 20260905205228 | 81 | 125 | 1.7 | 2.6 | 0.00 | 0.00 | 0.00 | 81 | 1015.4 |
| 20260905204728 | 82 | 103 | 7.8 | 9.6 | 0.00 | 0.00 | 0.00 | 80 | 1015.4 |
| 20260905204223 | 81 | 44 | 4.3 | 7.0 | 0.00 | 0.00 | 0.00 | 81 | 1015.7 |
| 20260905203723 | 81 | 127 | 6.1 | 7.8 | 0.00 | 0.00 | 0.00 | 82 | 1015.7 |
| 20260905203219 | 80 | 179 | 2.6 | 3.5 | 0.00 | 0.00 | 0.00 | 83 | 1015.7 |
| 20260905202714 | 80 | 152 | 3.5 | 5.2 | 0.00 | 0.00 | 0.00 | 83 | 1015.6 |
| 20260905202209 | 81 | 44 | 4.3 | 6.1 | 0.00 | 0.00 | 0.00 | 82 | 1015.4 |
| 20260905201705 | 80 | 168 | 1.7 | 3.5 | 0.00 | 0.00 | 0.00 | 82 | 1015.4 |
| 20260905201205 | 80 | 146 | 4.3 | 7.0 | 0.00 | 0.00 | 0.00 | 82 | 1015.7 |
| 20260905200700 | 80 | 99 | 4.3 | 6.1 | 0.00 | 0.00 | 0.00 | 82 | 1015.4 |
| 20260905200156 | 80 | 73 | 3.5 | 6.1 | 0.00 | 0.00 | 0.00 | 82 | 1015.4 |
| 20260905195654 | 80 | 84 | 2.6 | 5.2 | 0.00 | 0.00 | 0.00 | 82 | 1015.4 |
| 20260905195149 | 79 | 76 | 3.5 | 6.1 | 0.00 | 0.00 | 0.00 | 81 | 1015.4 |
| 20260905194644 | 80 | 86 | 5.2 | 7.0 | 0.00 | 0.00 | 0.00 | 80 | 1015.7 |
| 20260905194143 | 79 | 49 | 1.7 | 2.6 | 0.00 | 0.00 | 0.00 | 79 | 1015.8 |
| 20260905193638 | 79 | 81 | 7.8 | 9.6 | 0.00 | 0.00 | 0.00 | 78 | 1015.8 |
| 20260905193132 | 79 | 130 | 2.6 | 3.5 | 0.00 | 0.00 | 0.00 | 79 | 1015.9 |
| 20260905192628 | 79 | 133 | 2.6 | 5.2 | 0.00 | 0.00 | 0.00 | 79 | 1015.7 |
| 20260905192125 | 79 | 74 | 3.5 | 7.0 | 0.00 | 0.00 | 0.00 | 78 | 1015.6 |
| 20260905191624 | 80 | 69 | 5.2 | 7.0 | 0.00 | 0.00 | 0.00 | 78 | 1016.2 |
| 20260905191122 | 80 | 69 | 5.2 | 7.8 | 0.00 | 0.00 | 0.00 | 77 | 1016.1 |
| 20260905190620 | 80 | 59 | 2.6 | 3.5 | 0.00 | 0.00 | 0.00 | 79 | 1016.0 |
| 20260905190115 | 79 | 56 | 4.3 | 6.1 | 0.00 | 0.00 | 0.00 | 79 | 1016.0 |
| 20260905185614 | 79 | 94 | 5.2 | 7.0 | 0.00 | 0.00 | 0.00 | 78 | 1015.9 |
| 20260905185114 | 80 | 146 | 5.2 | 6.1 | 0.00 | 0.00 | 0.00 | 78 | 1015.7 |
| 20260905184608 | 79 | 60 | 5.2 | 6.1 | 0.00 | 0.00 | 0.00 | 79 | 1015.8 |
| 20260905184107 | 79 | 87 | 3.5 | 3.5 | 0.00 | 0.00 | 0.00 | 79 | 1015.8 |
| 20260905183606 | 79 | 76 | 5.2 | 7.8 | 0.00 | 0.00 | 0.00 | 79 | 1015.3 |
| 20260905183102 | 79 | 55 | 8.7 | 11.3 | 0.00 | 0.00 | 0.00 | 79 | 1015.3 |
| 20260905182601 | 79 | 184 | 3.5 | 7.0 | 0.00 | 0.00 | 0.00 | 79 | 1015.4 |
| 20260905182056 | 79 | 131 | 3.5 | 6.1 | 0.00 | 0.00 | 0.00 | 78 | 1015.4 |
| 20260905181556 | 79 | 32 | 7.8 | 8.7 | 0.00 | 0.00 | 0.00 | 77 | 1014.8 |
| 20260905181055 | 78 | 127 | 12.2 | 13.9 | 0.00 | 0.00 | 0.00 | 77 | 1015.1 |
| 20260905180550 | 78 | 169 | 8.7 | 11.3 | 0.00 | 0.00 | 0.00 | 77 | 1015.1 |
| 20260905180046 | 78 | 158 | 7.8 | 8.7 | 0.00 | 0.00 | 0.00 | 77 | 1015.4 |
| 20260905175545 | 78 | 56 | 6.1 | 7.0 | 0.00 | 0.00 | 0.00 | 76 | 1016.5 |
| 20260905175041 | 78 | 108 | 5.2 | 7.0 | 0.00 | 0.00 | 0.00 | 76 | 1016.9 |
| 20260905174536 | 78 | 58 | 3.5 | 5.2 | 0.00 | 0.00 | 0.00 | 75 | 1016.7 |
| 20260905174031 | 78 | 36 | 3.5 | 5.2 | 0.00 | 0.00 | 0.00 | 76 | 1016.9 |
| 20260905173528 | 78 | 24 | 4.3 | 7.0 | 0.00 | 0.00 | 0.00 | 75 | 1017.1 |
| 20260905173029 | 78 | 22 | 1.7 | 3.5 | 0.00 | 0.00 | 0.00 | 76 | 1017.2 |
| 20260905172527 | 78 | 45 | 3.5 | 5.2 | 0.00 | 0.00 | 0.00 | 76 | 1017.2 |
| 20260905172022 | 79 | 46 | 0.9 | 1.7 | 0.00 | 0.00 | 0.00 | 77 | 1017.4 |
| 20260905171519 | 78 | 320 | 0.9 | 0.9 | 0.00 | 0.00 | 0.00 | 77 | 1017.6 |
| 20260905171014 | 79 | 36 | 3.5 | 3.5 | 0.00 | 0.00 | 0.00 | 77 | 1017.6 |
| 20260905170511 | 78 | 65 | 0.0 | 0.0 | 0.00 | 0.00 | 0.00 | 79 | 1017.6 |
| 20260905170006 | 78 | 334 | 0.9 | 0.9 | 0.00 | 0.00 | 0.00 | 79 | 1017.9 |
| 20260905165501 | 78 | 103 | 1.7 | 2.6 | 0.00 | 0.00 | 0.00 | 81 | 1017.8 |
| 20260905164956 | 77 | 12 | 1.7 | 1.7 | 0.00 | 0.00 | 0.00 | 82 | 1018.0 |
| 20260905164455 | 77 | 5 | 1.7 | 1.7 | 0.00 | 0.00 | 0.00 | 86 | 1018.3 |
| 20260905163950 | 76 | 347 | 2.6 | 3.5 | 0.00 | 0.00 | 0.00 | 89 | 1018.3 |
| 20260905163447 | 75 | 352 | 4.3 | 7.0 | 0.00 | 0.00 | 0.00 | 93 | 1018.5 |
| 20260905162943 | 75 | 29 | 1.7 | 1.7 | 0.00 | 0.00 | 0.00 | 96 | 1018.3 |
| 20260905162438 | 74 | 59 | 0.9 | 1.7 | 0.00 | 0.00 | 0.00 | 97 | 1018.5 |
| 20260905161933 | 74 | 332 | 2.6 | 2.6 | 0.00 | 0.00 | 0.00 | 97 | 1018.7 |
| 20260905161432 | 74 | 14 | 1.7 | 3.5 | 0.00 | 0.00 | 0.00 | 97 | 1018.6 |
| 20260905160930 | 74 | 321 | 3.5 | 3.5 | 0.00 | 0.00 | 0.00 | 97 | 1018.7 |
| 20260905160424 | 74 | 296 | 2.6 | 3.5 | 0.00 | 0.00 | 0.00 | 97 | 1018.7 |
| 20260905155918 | 75 | 312 | 2.6 | 2.6 | 0.00 | 0.00 | 0.00 | 97 | 1018.1 |
| 20260905155418 | 74 | 12 | 0.0 | 0.0 | 0.00 | 0.00 | 0.00 | 98 | 1017.7 |
| 20260905154917 | 74 | 41 | 0.0 | 0.0 | 0.00 | 0.00 | 0.00 | 98 | 1017.8 |
| 20260905154413 | 74 | 18 | 0.0 | 0.0 | 0.00 | 0.00 | 0.00 | 98 | 1018.0 |
| 20260905153908 | 74 | 267 | 1.7 | 1.7 | 0.00 | 0.00 | 0.00 | 98 | 1018.3 |
| 20260905153404 | 74 | 51 | 0.0 | 0.0 | 0.00 | 0.00 | 0.00 | 98 | 1018.1 |
| 20260905152904 | 74 | 49 | 0.0 | 0.0 | 0.00 | 0.00 | 0.00 | 98 | 1017.9 |
| 20260905152403 | 74 | 46 | 0.0 | 0.0 | 0.00 | 0.00 | 0.00 | 98 | 1017.8 |
| 20260905151858 | 73 | 62 | 0.0 | 0.0 | 0.00 | 0.00 | 0.00 | 98 | 1017.8 |
| 20260905151354 | 73 | 66 | 0.0 | 0.0 | 0.00 | 0.00 | 0.00 | 98 | 1017.7 |